Weather History for Ruston, LA

Change the Weather History Date:

Thursday, December 12, 2013

  Actual Average Record
Temperature  
Mean Temperature 39 °F -  
Max Temperature 50 °F 58 °F 80 °F (2001)
Min Temperature 28 °F 35 °F 14 °F (1962)
Degree Days  
Heating Degree Days 26    
Moisture  
Dew Point 25 °F    
Average Humidity 71    
Maximum Humidity 97    
Minimum Humidity 27    
Precipitation  
Precipitation 0.00 in - - ()
Sea Level Pressure  
Sea Level Pressure 30.55 in    
Wind  
Wind Speed 5 mph (NE)    
Max Wind Speed 10 mph    
Max Gust Speed -    
Visibility 10 miles    
Events      
Averages and records for this station are not official NWS values.
T = Trace of Precipitation, MM = Missing Value Source: NWS Daily Summary

Daily Weather History Graph

Daily Weather History Graph

Search for Another Location

Airport:

Trip Planner

Search our weather history database for the weather conditions in past years. The results will help you decide how hot, cold, wet, or windy it might be!

Date:

Astronomy

Dec. 12, 2013 Rise Set
Actual Time 7:02 AM CST 5:05 PM CST
Civil Twilight 6:35 AM CST 5:32 PM CST
Nautical Twilight 6:05 AM CST 6:03 PM CST
Astronomical Twilight 5:35 AM CST 6:33 PM CST
Moon 2:02 PM CST (12/12) 2:37 AM CST (12/12)
Length of Visible Light 10h 57m
Length of Day
10h 02m
Waxing Gibbous, 80% of the Moon is Illuminated
Dec 12
Waxing Gibbous
Dec 17
Full
Dec 25
Last Quarter
Jan 1
New
Jan 7
First Quarter

Hourly Weather History & Observations

Time (CST) Temp. Windchill Dew Point Humidity Pressure Visibility Wind Dir Wind Speed Gust Speed Precip Events Conditions
12:15 AM 35.6 °F 29.2 °F 32.0 °F 87% 30.58 in 10.0 mi NNE 8.1 mph - N/A   Clear
12:35 AM 35.8 °F 28.8 °F 31.1 °F 83% 30.57 in 10.0 mi NNE 9.2 mph - N/A   Clear
12:55 AM 35.6 °F 28.6 °F 30.6 °F 82% 30.57 in 10.0 mi NNE 9.2 mph - N/A   Clear
1:15 AM 35.1 °F 27.9 °F 30.0 °F 82% 30.58 in 10.0 mi NNE 9.2 mph - N/A   Clear
1:35 AM 34.7 °F 28.8 °F 29.7 °F 82% 30.58 in 10.0 mi NE 6.9 mph - N/A   Clear
1:55 AM 34.2 °F 29.0 °F 29.3 °F 82% 30.58 in 10.0 mi NNE 5.8 mph - N/A   Clear
2:15 AM 33.4 °F 29.1 °F 29.3 °F 85% 30.58 in 10.0 mi NNE 4.6 mph - N/A   Clear
2:35 AM 32.5 °F 28.1 °F 29.1 °F 87% 30.58 in 10.0 mi NNE 4.6 mph - N/A   Clear
2:55 AM 32.4 °F 29.1 °F 29.1 °F 88% 30.58 in 10.0 mi NNE 3.5 mph - N/A   Clear
3:15 AM 31.1 °F 26.4 °F 28.4 °F 90% 30.58 in 10.0 mi NNE 4.6 mph - N/A   Clear
3:35 AM 31.1 °F 26.4 °F 28.6 °F 90% 30.59 in 10.0 mi NNE 4.6 mph - N/A   Clear
3:55 AM 30.2 °F 26.7 °F 28.2 °F 92% 30.59 in 10.0 mi North 3.5 mph - N/A   Clear
4:15 AM 30.2 °F 26.7 °F 28.4 °F 93% 30.60 in 10.0 mi North 3.5 mph - N/A   Clear
4:35 AM 29.8 °F 24.9 °F 28.2 °F 94% 30.60 in 10.0 mi North 4.6 mph - N/A   Clear
4:55 AM 29.8 °F - 28.2 °F 94% 30.60 in 10.0 mi Calm Calm - N/A   Clear
5:15 AM 29.5 °F - 28.2 °F 95% 30.59 in 7.0 mi Calm Calm - N/A   Clear
5:35 AM 29.1 °F 24.1 °F 28.4 °F 97% 30.60 in 7.0 mi North 4.6 mph - N/A   Clear
5:55 AM 29.1 °F 24.1 °F 28.0 °F 96% 30.61 in 10.0 mi NNE 4.6 mph - N/A   Clear
6:15 AM 29.3 °F 24.3 °F 28.0 °F 95% 30.62 in 10.0 mi NNE 4.6 mph - N/A   Clear
6:35 AM 29.7 °F - 27.7 °F 92% 30.62 in 10.0 mi Calm Calm - N/A   Clear
6:55 AM 29.1 °F 25.4 °F 27.3 °F 93% 30.63 in 10.0 mi NNE 3.5 mph - N/A   Clear
7:15 AM 29.3 °F - 27.5 °F 93% 30.63 in 10.0 mi Calm Calm - N/A   Clear
7:35 AM 28.2 °F 24.4 °F 26.6 °F 94% 30.63 in 7.0 mi NNE 3.5 mph - N/A   Clear
7:55 AM 30.0 °F 26.5 °F 28.0 °F 92% 30.63 in 10.0 mi NNE 3.5 mph - N/A   Clear
8:15 AM 31.6 °F 27.0 °F 28.0 °F 87% 30.63 in 10.0 mi NE 4.6 mph - N/A   Clear
8:35 AM 32.2 °F 26.7 °F 27.9 °F 84% 30.63 in 10.0 mi NE 5.8 mph - N/A   Clear
8:55 AM 33.8 °F 25.8 °F 27.3 °F 77% 30.63 in 10.0 mi East 10.4 mph - N/A   Clear
9:15 AM 35.2 °F 29.5 °F 27.0 °F 72% 30.63 in 10.0 mi ENE 6.9 mph - N/A   Clear
9:35 AM 36.7 °F 29.9 °F 25.5 °F 64% 30.64 in 10.0 mi ENE 9.2 mph - N/A   Clear
9:55 AM 38.1 °F 31.7 °F 24.3 °F 57% 30.65 in 10.0 mi ENE 9.2 mph - N/A   Clear
10:15 AM 39.4 °F 33.8 °F 24.1 °F 54% 30.64 in 10.0 mi NE 8.1 mph - N/A   Clear
10:35 AM 40.5 °F 35.8 °F 22.3 °F 48% 30.64 in 10.0 mi East 6.9 mph - N/A   Clear
10:55 AM 42.6 °F 37.8 °F 21.6 °F 43% 30.64 in 10.0 mi ENE 8.1 mph - N/A   Clear
11:15 AM 43.9 °F 39.3 °F 20.1 °F 39% 30.63 in 10.0 mi East 8.1 mph - N/A   Clear
11:35 AM 44.4 °F 40.0 °F 19.6 °F 37% 30.62 in 10.0 mi NE 8.1 mph - N/A   Clear
11:55 AM 45.3 °F 41.6 °F 19.2 °F 35% 30.60 in 10.0 mi East 6.9 mph - N/A   Clear
12:15 PM 46.8 °F - 16.7 °F 30% 30.60 in 10.0 mi East 6.9 mph - N/A   Clear
12:35 PM 47.8 °F - 18.5 °F 31% 30.59 in 10.0 mi East 4.6 mph - N/A   Clear
12:55 PM 47.7 °F - 17.8 °F 30% 30.57 in 10.0 mi Calm Calm - N/A   Clear
1:15 PM 49.1 °F - 17.2 °F 28% 30.56 in 10.0 mi ENE 8.1 mph - N/A   Clear
1:35 PM 49.3 °F - 16.2 °F 27% 30.55 in 10.0 mi NE 4.6 mph - N/A   Clear
1:55 PM 49.6 °F - 17.4 °F 28% 30.54 in 10.0 mi East 6.9 mph - N/A   Clear
2:15 PM 49.8 °F - 18.0 °F 28% 30.53 in 10.0 mi ENE 8.1 mph - N/A   Clear
2:35 PM 50.9 °F - 18.3 °F 28% 30.52 in 10.0 mi East 4.6 mph - N/A   Clear
2:55 PM 50.5 °F - 17.8 °F 27% 30.52 in 10.0 mi Calm Calm - N/A   Clear
3:15 PM 50.5 °F - 17.1 °F 27% 30.52 in 10.0 mi ESE 3.5 mph - N/A   Clear
3:35 PM 50.5 °F - 18.0 °F 28% 30.51 in 10.0 mi ESE 4.6 mph - N/A   Clear
3:55 PM 49.6 °F - 17.8 °F 28% 30.51 in 10.0 mi ENE 3.5 mph - N/A   Clear
4:15 PM 48.7 °F - 17.1 °F 28% 30.51 in 10.0 mi NE 4.6 mph - N/A   Clear
4:35 PM 47.7 °F - 17.2 °F 30% 30.50 in 10.0 mi ENE 3.5 mph - N/A   Clear
4:55 PM 46.0 °F - 22.1 °F 39% 30.49 in 10.0 mi Calm Calm - N/A   Clear
5:15 PM 40.1 °F - 28.6 °F 63% 30.50 in 10.0 mi Calm Calm - N/A   Clear
5:35 PM 37.2 °F - 29.3 °F 73% 30.50 in 10.0 mi Calm Calm - N/A   Clear
5:55 PM 35.6 °F - 29.5 °F 78% 30.50 in 10.0 mi Calm Calm - N/A   Clear
6:15 PM 35.1 °F - 29.8 °F 81% 30.49 in 10.0 mi Calm Calm - N/A   Clear
6:35 PM 34.0 °F - 28.6 °F 81% 30.48 in 10.0 mi Calm Calm - N/A   Clear
6:55 PM 32.5 °F - 28.0 °F 83% 30.47 in 10.0 mi Calm Calm - N/A   Clear
7:15 PM 33.3 °F - 27.1 °F 78% 30.46 in 10.0 mi Calm Calm - N/A   Clear
7:35 PM 32.0 °F - 27.0 °F 82% 30.47 in 10.0 mi Calm Calm - N/A   Clear
7:55 PM 31.3 °F - 27.5 °F 86% 30.47 in 10.0 mi Calm Calm - N/A   Clear
8:15 PM 30.7 °F - 27.3 °F 87% 30.47 in 10.0 mi Calm Calm - N/A   Clear
8:35 PM 30.0 °F - 27.0 °F 88% 30.46 in 10.0 mi Calm Calm - N/A   Clear
8:55 PM 29.3 °F - 27.1 °F 92% 30.46 in 10.0 mi Calm Calm - N/A   Clear
9:15 PM 29.5 °F - 26.8 °F 90% 30.46 in 10.0 mi Calm Calm - N/A   Clear
9:35 PM 28.4 °F - 26.6 °F 93% 30.46 in 10.0 mi Calm Calm - N/A   Clear
9:55 PM 29.1 °F - 26.6 °F 90% 30.45 in 10.0 mi Calm Calm - N/A   Clear
10:15 PM 28.9 °F - 27.1 °F 93% 30.45 in 10.0 mi Calm Calm - N/A   Clear
10:35 PM 29.8 °F - 28.0 °F 93% 30.44 in 10.0 mi Calm Calm - N/A   Clear
10:55 PM 29.8 °F - 27.9 °F 92% 30.44 in 10.0 mi Calm Calm - N/A   Clear
11:15 PM 29.3 °F - 27.9 °F 94% 30.44 in 10.0 mi Calm Calm - N/A   Clear
11:35 PM 29.3 °F - 27.3 °F 92% 30.44 in 10.0 mi Calm Calm - N/A   Clear
11:55 PM 30.9 °F - 28.4 °F 90% 30.43 in 10.0 mi Calm Calm - N/A   Clear